QPF
0.03 0.03 0.03 0.04 0.04 0.03 0.03 0.03 0.03 0.03 0.05 0.12 0.11 0.05 0.04 0.03 0.03 0.03 0.02 0.02 0.02 0.01 0.00 0.00 0.01 0.02 0.04 0.07 0.08 0.07 0.06 0.04 0.03 0.03 0.04 0.05 0.04 0.03
0.03 0.02 0.02 0.04 0.03 0.03 0.04 0.05 0.04 0.04 0.07 0.12 0.13 0.09 0.05 0.03 0.02 0.02 0.01 0.02 0.02 0.01 0.00 0.00 0.00 0.01 0.02 0.04 0.04 0.04 0.04 0.03 0.02 0.02 0.03 0.04 0.05 0.05
0.02 0.02 0.02 0.02 0.03 0.04 0.03 0.03 0.03 0.04 0.07 0.09 0.13 0.11 0.05 0.02 0.01 0.01 0.01 0.01 0.01 0.01 0.01 0.01 0.00 0.02 0.02 0.02 0.03 0.02 0.02 0.02 0.02 0.02 0.02 0.03 0.04 0.04
0.01 0.01 0.02 0.03 0.04 0.04 0.03 0.02 0.03 0.05 0.08 0.08 0.11 0.08 0.04 0.02 0.01 0.01 0.01 0.01 0.01 0.02 0.02 0.01 0.01 0.03 0.02 0.02 0.03 0.03 0.03 0.02 0.02 0.02 0.02 0.03 0.03 0.03
0.01 0.02 0.02 0.02 0.03 0.03 0.01 0.01 0.03 0.06 0.08 0.08 0.10 0.05 0.02 0.01 0.01 0.01 0.00 0.00 0.01 0.02 0.02 0.01 0.03 0.04 0.03 0.02 0.02 0.02 0.03 0.03 0.03 0.03 0.02 0.02 0.02 0.03
0.01 0.01 0.01 0.02 0.02 0.01 0.01 0.01 0.03 0.05 0.06 0.07 0.08 0.05 0.02 0.01 0.00 0.00 0.01 0.01 0.01 0.02 0.03 0.03 0.05 0.03 0.02 0.02 0.02 0.02 0.03 0.03 0.03 0.04 0.03 0.02 0.02 0.02
0.02 0.01 0.02 0.02 0.02 0.01 0.01 0.02 0.03 0.05 0.04 0.04 0.07 0.06 0.03 0.01 0.01 0.00 0.01 0.01 0.01 0.02 0.04 0.06 0.05 0.03 0.03 0.02 0.02 0.01 0.02 0.03 0.03 0.05 0.04 0.03 0.02 0.02
0.02 0.02 0.02 0.02 0.02 0.01 0.02 0.03 0.04 0.04 0.03 0.03 0.04 0.04 0.02 0.01 0.01 0.00 0.01 0.02 0.03 0.05 0.06 0.06 0.03 0.03 0.02 0.02 0.01 0.01 0.01 0.01 0.02 0.03 0.04 0.03 0.02 0.01
0.02 0.02 0.02 0.02 0.02 0.02 0.02 0.04 0.04 0.04 0.03 0.03 0.03 0.02 0.02 0.03 0.02 0.01 0.02 0.03 0.05 0.07 0.05 0.05 0.04 0.03 0.02 0.03 0.02 0.01 0.01 0.01 0.01 0.01 0.02 0.03 0.02 0.01
0.03 0.03 0.02 0.02 0.02 0.02 0.02 0.03 0.04 0.03 0.02 0.02 0.03 0.02 0.01 0.03 0.04 0.03 0.03 0.05 0.05 0.04 0.04 0.04 0.04 0.03 0.02 0.02 0.03 0.02 0.01 0.01 0.01 0.01 0.01 0.01 0.02 0.01
0.03 0.02 0.02 0.02 0.03 0.04 0.03 0.02 0.03 0.03 0.03 0.03 0.04 0.03 0.02 0.03 0.04 0.04 0.03 0.03 0.04 0.03 0.03 0.04 0.04 0.03 0.03 0.03 0.02 0.02 0.01 0.01 0.01 0.01 0.01 0.01 0.01 0.02
0.02 0.02 0.02 0.02 0.02 0.03 0.03 0.02 0.02 0.02 0.02 0.03 0.04 0.03 0.02 0.02 0.03 0.04 0.04 0.04 0.04 0.03 0.03 0.04 0.05 0.05 0.04 0.03 0.02 0.01 0.01 0.01 0.01 0.01 0.01 0.01 0.01 0.02
0.00 0.01 0.01 0.02 0.02 0.02 0.02 0.02 0.02 0.02 0.02 0.02 0.03 0.03 0.02 0.02 0.02 0.03 0.04 0.04 0.04 0.04 0.05 0.06 0.06 0.07 0.05 0.03 0.02 0.01 0.01 0.01 0.01 0.01 0.01 0.02 0.02 0.03
0.00 0.00 0.01 0.01 0.02 0.02 0.02 0.02 0.03 0.02 0.02 0.02 0.02 0.02 0.01 0.01 0.02 0.02 0.03 0.04 0.04 0.05 0.05 0.05 0.06 0.06 0.06 0.04 0.03 0.02 0.01 0.01 0.01 0.01 0.01 0.01 0.02 0.03
0.00 0.00 0.00 0.01 0.01 0.02 0.03 0.03 0.02 0.02 0.02 0.02 0.02 0.02 0.02 0.02 0.02 0.02 0.02 0.04 0.04 0.05 0.06 0.05 0.05 0.05 0.06 0.05 0.03 0.02 0.02 0.01 0.02 0.02 0.01 0.01 0.02 0.03
0.01 0.00 0.00 0.01 0.01 0.01 0.02 0.02 0.02 0.01 0.02 0.02 0.03 0.03 0.02 0.02 0.02 0.02 0.02 0.03 0.03 0.04 0.05 0.05 0.06 0.06 0.06 0.04 0.04 0.03 0.02 0.02 0.02 0.03 0.03 0.02 0.02 0.03
0.01 0.01 0.00 0.00 0.01 0.02 0.03 0.02 0.02 0.01 0.01 0.01 0.01 0.02 0.02 0.02 0.03 0.03 0.03 0.04 0.04 0.05 0.06 0.05 0.05 0.06 0.06 0.05 0.05 0.04 0.03 0.03 0.04 0.04 0.05 0.03 0.03 0.03
0.02 0.01 0.01 0.01 0.01 0.02 0.03 0.03 0.02 0.02 0.01 0.01 0.01 0.01 0.01 0.01 0.02 0.02 0.02 0.03 0.04 0.05 0.06 0.06 0.06 0.06 0.07 0.06 0.05 0.05 0.04 0.04 0.05 0.05 0.05 0.04 0.04 0.05
0.03 0.02 0.01 0.01 0.02 0.02 0.03 0.03 0.03 0.02 0.02 0.01 0.01 0.01 0.01 0.01 0.02 0.02 0.02 0.03 0.03 0.03 0.04 0.05 0.05 0.06 0.07 0.06 0.05 0.05 0.05 0.04 0.05 0.06 0.07 0.07 0.07 0.09
0.03 0.02 0.01 0.01 0.01 0.02 0.02 0.03 0.03 0.02 0.02 0.02 0.01 0.01 0.01 0.01 0.02 0.02 0.02 0.03 0.03 0.03 0.04 0.04 0.04 0.04 0.05 0.05 0.04 0.04 0.05 0.05 0.05 0.06 0.07 0.09 0.11 0.12
0.03 0.02 0.01 0.01 0.01 0.01 0.02 0.02 0.03 0.03 0.03 0.02 0.02 0.01 0.01 0.01 0.01 0.02 0.02 0.03 0.03 0.03 0.04 0.03 0.03 0.04 0.04 0.05 0.04 0.04 0.04 0.06 0.05 0.04 0.04 0.05 0.09 0.11
0.02 0.02 0.02 0.01 0.01 0.01 0.01 0.01 0.02 0.03 0.03 0.02 0.02 0.01 0.01 0.01 0.01 0.02 0.02 0.02 0.02 0.03 0.03 0.03 0.03 0.03 0.04 0.05 0.04 0.04 0.04 0.06 0.05 0.03 0.03 0.05 0.07 0.10
0.02 0.02 0.02 0.01 0.01 0.01 0.01 0.01 0.02 0.02 0.03 0.02 0.02 0.01 0.01 0.01 0.02 0.02 0.02 0.02 0.02 0.03 0.03 0.03 0.03 0.04 0.04 0.04 0.04 0.03 0.03 0.05 0.04 0.03 0.03 0.04 0.05 0.07
MSLP
1024.45 1024.35 1024.20 1023.97 1023.66 1023.26 1022.77 1022.22 1021.62 1020.98 1020.30 1019.59 1018.82 1017.99 1017.10 1016.16 1015.18 1014.20 1013.25 1012.37 1011.61 1010.98 1010.50 1010.15 1009.92 1009.78 1009.71 1009.68 1009.66 1009.66 1009.67 1009.69 1009.70 1009.73 1009.76 1009.80 1009.84 1009.91
1024.83 1024.69 1024.51 1024.27 1023.95 1023.55 1023.08 1022.56 1021.98 1021.37 1020.72 1020.01 1019.24 1018.39 1017.45 1016.44 1015.38 1014.31 1013.28 1012.32 1011.49 1010.83 1010.33 1009.99 1009.80 1009.72 1009.72 1009.77 1009.83 1009.90 1009.96 1010.01 1010.04 1010.06 1010.07 1010.09 1010.11 1010.17
1025.14 1024.97 1024.76 1024.50 1024.17 1023.77 1023.32 1022.82 1022.29 1021.71 1021.09 1020.41 1019.65 1018.79 1017.83 1016.77 1015.64 1014.49 1013.37 1012.33 1011.43 1010.71 1010.17 1009.83 1009.66 1009.62 1009.69 1009.81 1009.96 1010.11 1010.24 1010.34 1010.41 1010.45 1010.47 1010.47 1010.49 1010.53
1025.46 1025.25 1025.02 1024.73 1024.38 1023.99 1023.55 1023.08 1022.58 1022.05 1021.47 1020.83 1020.09 1019.23 1018.26 1017.17 1015.99 1014.78 1013.58 1012.46 1011.48 1010.69 1010.10 1009.72 1009.54 1009.52 1009.63 1009.81 1010.04 1010.26 1010.47 1010.64 1010.77 1010.85 1010.90 1010.92 1010.93 1010.96
1025.80 1025.58 1025.31 1025.00 1024.64 1024.25 1023.82 1023.37 1022.90 1022.41 1021.87 1021.27 1020.56 1019.73 1018.76 1017.67 1016.47 1015.21 1013.95 1012.76 1011.71 1010.83 1010.17 1009.73 1009.51 1009.47 1009.57 1009.78 1010.05 1010.35 1010.62 1010.87 1011.07 1011.22 1011.31 1011.37 1011.40 1011.43
1026.18 1025.93 1025.65 1025.32 1024.95 1024.54 1024.12 1023.68 1023.24 1022.78 1022.29 1021.73 1021.07 1020.28 1019.34 1018.26 1017.07 1015.80 1014.51 1013.26 1012.14 1011.18 1010.43 1009.91 1009.61 1009.50 1009.57 1009.76 1010.04 1010.36 1010.69 1010.99 1011.26 1011.48 1011.65 1011.76 1011.83 1011.88
1026.56 1026.30 1026.00 1025.65 1025.27 1024.85 1024.43 1024.01 1023.59 1023.16 1022.71 1022.20 1021.59 1020.86 1019.97 1018.94 1017.78 1016.53 1015.23 1013.96 1012.79 1011.76 1010.91 1010.29 1009.87 1009.67 1009.64 1009.77 1010.01 1010.31 1010.66 1011.01 1011.34 1011.63 1011.87 1012.05 1012.18 1012.27
1026.91 1026.64 1026.32 1025.96 1025.56 1025.14 1024.72 1024.31 1023.91 1023.52 1023.11 1022.65 1022.11 1021.44 1020.63 1019.67 1018.58 1017.37 1016.11 1014.84 1013.64 1012.54 1011.61 1010.87 1010.33 1010.00 1009.85 1009.86 1010.01 1010.26 1010.58 1010.94 1011.31 1011.66 1011.97 1012.23 1012.44 1012.60
1027.17 1026.89 1026.57 1026.20 1025.80 1025.38 1024.97 1024.57 1024.19 1023.83 1023.47 1023.07 1022.59 1022.01 1021.29 1020.42 1019.41 1018.28 1017.08 1015.84 1014.64 1013.51 1012.51 1011.66 1011.00 1010.51 1010.21 1010.08 1010.11 1010.26 1010.52 1010.86 1011.23 1011.62 1012.00 1012.33 1012.61 1012.85
1027.33 1027.05 1026.73 1026.36 1025.96 1025.56 1025.16 1024.78 1024.44 1024.12 1023.80 1023.45 1023.05 1022.54 1021.92 1021.15 1020.24 1019.21 1018.09 1016.91 1015.73 1014.60 1013.55 1012.63 1011.84 1011.22 1010.76 1010.48 1010.36 1010.39 1010.55 1010.83 1011.18 1011.58 1011.99 1012.39 1012.75 1013.05
1027.40 1027.13 1026.81 1026.46 1026.08 1025.70 1025.33 1024.99 1024.68 1024.39 1024.12 1023.83 1023.49 1023.05 1022.51 1021.84 1021.03 1020.10 1019.08 1017.98 1016.86 1015.75 1014.69 1013.71 1012.84 1012.10 1011.51 1011.07 1010.80 1010.70 1010.74 1010.93 1011.23 1011.61 1012.03 1012.46 1012.87 1013.24
1027.40 1027.14 1026.85 1026.53 1026.18 1025.84 1025.51 1025.21 1024.94 1024.70 1024.47 1024.22 1023.92 1023.55 1023.08 1022.48 1021.77 1020.94 1020.01 1019.00 1017.95 1016.89 1015.85 1014.86 1013.95 1013.13 1012.43 1011.87 1011.46 1011.22 1011.14 1011.22 1011.43 1011.76 1012.16 1012.59 1013.02 1013.41
1027.38 1027.16 1026.90 1026.62 1026.32 1026.03 1025.75 1025.49 1025.26 1025.06 1024.85 1024.64 1024.37 1024.04 1023.61 1023.08 1022.44 1021.69 1020.85 1019.94 1018.97 1017.98 1017.00 1016.03 1015.11 1014.25 1013.49 1012.84 1012.32 1011.96 1011.75 1011.71 1011.82 1012.06 1012.40 1012.79 1013.20 1013.59
1027.38 1027.19 1026.98 1026.76 1026.51 1026.27 1026.05 1025.84 1025.65 1025.47 1025.29 1025.09 1024.85 1024.53 1024.13 1023.64 1023.04 1022.36 1021.60 1020.77 1019.89 1018.99 1018.08 1017.17 1016.29 1015.44 1014.65 1013.94 1013.35 1012.88 1012.56 1012.39 1012.38 1012.51 1012.74 1013.06 1013.41 1013.75
1027.40 1027.27 1027.11 1026.94 1026.75 1026.56 1026.38 1026.22 1026.07 1025.92 1025.76 1025.57 1025.33 1025.02 1024.63 1024.15 1023.59 1022.96 1022.26 1021.51 1020.72 1019.91 1019.09 1018.26 1017.44 1016.64 1015.86 1015.13 1014.49 1013.94 1013.51 1013.22 1013.08 1013.07 1013.18 1013.38 1013.63 1013.89
1027.44 1027.36 1027.25 1027.13 1026.99 1026.85 1026.71 1026.59 1026.46 1026.34 1026.20 1026.02 1025.79 1025.48 1025.10 1024.64 1024.10 1023.50 1022.85 1022.17 1021.46 1020.74 1020.01 1019.28 1018.54 1017.80 1017.07 1016.36 1015.68 1015.08 1014.56 1014.16 1013.88 1013.73 1013.69 1013.75 1013.87 1014.02
1027.44 1027.41 1027.34 1027.25 1027.15 1027.05 1026.95 1026.86 1026.77 1026.68 1026.56 1026.40 1026.18 1025.89 1025.52 1025.08 1024.57 1024.00 1023.39 1022.77 1022.14 1021.50 1020.87 1020.23 1019.58 1018.92 1018.25 1017.56 1016.89 1016.25 1015.66 1015.16 1014.75 1014.45 1014.26 1014.16 1014.14 1014.16
1027.35 1027.35 1027.31 1027.25 1027.18 1027.11 1027.04 1026.98 1026.93 1026.87 1026.79 1026.67 1026.49 1026.23 1025.89 1025.48 1025.00 1024.47 1023.91 1023.34 1022.78 1022.22 1021.67 1021.12 1020.56 1019.97 1019.36 1018.73 1018.07 1017.41 1016.78 1016.19 1015.67 1015.24 1014.91 1014.66 1014.49 1014.37
1027.11 1027.13 1027.12 1027.08 1027.02 1026.97 1026.93 1026.91 1026.90 1026.89 1026.87 1026.80 1026.68 1026.48 1026.19 1025.83 1025.40 1024.92 1024.41 1023.89 1023.39 1022.89 1022.41 1021.94 1021.45 1020.95 1020.41 1019.82 1019.20 1018.55 1017.89 1017.25 1016.65 1016.11 1015.65 1015.27 1014.96 1014.71
1026.70 1026.74 1026.73 1026.70 1026.67 1026.64 1026.63 1026.65 1026.69 1026.74 1026.79 1026.80 1026.75 1026.62 1026.41 1026.12 1025.76 1025.33 1024.88 1024.42 1023.96 1023.52 1023.10 1022.69 1022.27 1021.84 1021.37 1020.84 1020.26 1019.64 1018.99 1018.32 1017.67 1017.06 1016.51 1016.02 1015.60 1015.23
1026.11 1026.17 1026.18 1026.16 1026.14 1026.14 1026.17 1026.24 1026.34 1026.46 1026.58 1026.67 1026.71 1026.67 1026.55 1026.34 1026.05 1025.69 1025.29 1024.88 1024.47 1024.08 1023.71 1023.35 1023.00 1022.62 1022.22 1021.76 1021.24 1020.67 1020.05 1019.39 1018.73 1018.09 1017.48 1016.92 1016.42 1015.97
1025.38 1025.45 1025.49 1025.50 1025.51 1025.54 1025.61 1025.73 1025.89 1026.08 1026.28 1026.45 1026.58 1026.63 1026.60 1026.47 1026.25 1025.96 1025.62 1025.25 1024.89 1024.54 1024.21 1023.90 1023.59 1023.28 1022.94 1022.56 1022.11 1021.61 1021.04 1020.44 1019.81 1019.17 1018.55 1017.96 1017.41 1016.90
1024.53 1024.65 1024.72 1024.77 1024.82 1024.90 1025.01 1025.18 1025.40 1025.65 1025.92 1026.17 1026.37 1026.50 1026.54 1026.49 1026.34 1026.11 1025.83 1025.51 1025.18 1024.87 1024.57 1024.31 1024.05 1023.80 1023.52 1023.21 1022.85 1022.42 1021.94 1021.41 1020.84 1020.25 1019.66 1019.08 1018.52 1017.98
Thickness
5631 5629 5627 5627 5626 5624 5622 5620 5616 5613 5613 5615 5615 5617 5618 5618 5619 5620 5620 5622 5623 5625 5627 5629 5632 5634 5636 5638 5639 5640 5641 5641 5642 5643 5643 5644 5645 5646
5625 5624 5622 5621 5620 5618 5617 5615 5614 5611 5608 5609 5608 5610 5611 5611 5611 5612 5613 5615 5617 5618 5621 5623 5625 5627 5629 5631 5632 5633 5634 5634 5635 5636 5637 5639 5639 5640
5619 5618 5616 5615 5614 5612 5611 5610 5608 5606 5603 5603 5603 5604 5604 5604 5605 5605 5607 5609 5610 5612 5614 5616 5618 5620 5622 5624 5626 5627 5628 5628 5629 5630 5631 5632 5633 5634
5613 5612 5610 5610 5608 5606 5605 5603 5602 5601 5598 5596 5597 5597 5598 5598 5598 5599 5600 5602 5603 5605 5607 5610 5612 5614 5616 5618 5619 5621 5622 5622 5623 5624 5625 5626 5627 5627
5607 5606 5604 5603 5601 5600 5599 5598 5597 5596 5593 5591 5591 5591 5591 5591 5591 5592 5594 5595 5597 5599 5601 5604 5606 5608 5610 5612 5613 5614 5615 5616 5617 5618 5619 5619 5620 5621
5602 5600 5599 5598 5596 5595 5594 5593 5592 5590 5587 5585 5584 5584 5584 5584 5584 5584 5585 5587 5589 5593 5595 5597 5600 5603 5604 5606 5607 5608 5609 5609 5610 5611 5612 5613 5613 5614
5594 5593 5593 5593 5592 5591 5590 5588 5586 5584 5582 5580 5579 5578 5577 5577 5577 5578 5579 5580 5582 5585 5588 5591 5594 5596 5597 5599 5600 5602 5603 5603 5604 5605 5605 5606 5606 5607
5586 5586 5586 5586 5586 5586 5585 5584 5583 5580 5577 5576 5574 5573 5573 5573 5573 5573 5572 5573 5575 5579 5581 5584 5586 5588 5590 5592 5594 5596 5597 5597 5598 5598 5599 5599 5600 5600
5579 5579 5579 5580 5579 5578 5578 5578 5577 5577 5576 5574 5571 5571 5571 5571 5570 5569 5568 5568 5571 5574 5574 5577 5579 5581 5584 5586 5588 5590 5590 5591 5592 5592 5593 5594 5594 5594
5572 5572 5571 5571 5572 5571 5571 5570 5570 5570 5571 5571 5570 5570 5570 5570 5568 5568 5567 5566 5567 5569 5570 5570 5572 5574 5579 5581 5582 5584 5585 5585 5586 5587 5587 5588 5588 5589
5565 5565 5564 5564 5565 5565 5564 5563 5564 5564 5565 5566 5566 5566 5566 5566 5566 5564 5562 5561 5561 5563 5564 5565 5566 5568 5571 5574 5576 5578 5579 5580 5581 5581 5582 5582 5582 5582
5557 5557 5558 5558 5558 5558 5558 5557 5557 5557 5558 5559 5560 5560 5561 5561 5561 5560 5558 5556 5557 5557 5560 5560 5560 5561 5563 5567 5569 5571 5572 5574 5574 5575 5575 5575 5575 5575
5549 5549 5550 5551 5552 5552 5551 5551 5551 5552 5552 5552 5552 5553 5553 5554 5554 5554 5553 5553 5552 5554 5556 5555 5555 5554 5555 5558 5561 5564 5565 5566 5567 5568 5568 5569 5569 5569
5542 5542 5543 5544 5544 5544 5544 5546 5547 5546 5546 5546 5545 5545 5546 5546 5547 5547 5547 5548 5549 5550 5551 5551 5550 5550 5549 5550 5552 5555 5557 5558 5560 5561 5562 5562 5562 5562
5536 5536 5537 5537 5537 5536 5537 5538 5539 5538 5538 5538 5538 5538 5539 5540 5540 5540 5541 5541 5542 5544 5544 5544 5544 5544 5543 5543 5545 5547 5548 5551 5552 5553 5554 5555 5555 5555
5529 5528 5528 5528 5528 5529 5529 5529 5529 5530 5530 5530 5530 5531 5532 5532 5532 5532 5532 5533 5533 5535 5536 5537 5538 5537 5537 5537 5538 5539 5541 5542 5545 5546 5547 5548 5548 5548
5522 5520 5519 5519 5519 5519 5519 5520 5520 5521 5521 5522 5522 5522 5523 5524 5524 5524 5524 5524 5524 5525 5526 5528 5529 5529 5530 5530 5530 5532 5534 5535 5537 5538 5538 5539 5540 5541
5514 5511 5510 5510 5510 5510 5510 5511 5511 5512 5512 5513 5513 5513 5514 5514 5515 5515 5515 5515 5515 5516 5516 5518 5518 5519 5520 5521 5524 5524 5526 5528 5528 5529 5529 5529 5531 5533
5505 5504 5503 5503 5502 5503 5503 5503 5503 5503 5504 5505 5505 5505 5505 5505 5505 5506 5506 5506 5506 5507 5507 5508 5509 5509 5510 5512 5516 5517 5517 5519 5520 5520 5520 5521 5522 5525
5497 5496 5496 5495 5495 5495 5495 5495 5495 5495 5495 5496 5496 5496 5496 5496 5496 5496 5496 5496 5497 5497 5498 5499 5500 5500 5501 5503 5506 5509 5510 5511 5511 5512 5512 5513 5514 5516
5490 5489 5489 5489 5488 5488 5488 5487 5487 5487 5487 5487 5487 5488 5488 5487 5487 5488 5488 5488 5488 5488 5489 5491 5492 5494 5494 5494 5495 5499 5501 5502 5503 5503 5503 5503 5503 5505
5483 5482 5482 5482 5481 5481 5480 5480 5480 5479 5479 5479 5479 5479 5479 5479 5479 5479 5479 5479 5480 5480 5481 5482 5483 5484 5485 5486 5488 5489 5491 5493 5494 5495 5495 5496 5495 5496
5476 5475 5475 5475 5475 5474 5473 5473 5472 5472 5472 5472 5471 5471 5471 5471 5471 5471 5471 5471 5472 5472 5472 5473 5473 5475 5476 5477 5479 5480 5482 5482 5483 5484 5486 5487 5488 5489